Time,TemperatureF,DewpointF,PressureIn,WindDirection,WindDirectionDegrees,WindSpeedMPH,WindSpeedGustMPH,Humidity,HourlyPrecipIn,Conditions,Clouds,dailyrainin,SoftwareType,DateUTC
2013-02-06 00:03:00,23.1,20.6,29.91,South,183,0.0,2.0,90,0.00,,,0.00,VWS V14.00,2013-02-06 05:03:00,
2013-02-06 00:08:00,23.1,20.6,29.91,South,183,0.0,2.0,90,0.00,,,0.00,VWS V14.00,2013-02-06 05:08:00,
2013-02-06 00:13:00,23.1,20.6,29.92,South,183,0.0,2.0,90,0.00,,,0.00,VWS V14.00,2013-02-06 05:13:00,
2013-02-06 00:19:00,23.1,20.9,29.92,South,183,0.0,3.0,91,0.00,,,0.00,VWS V14.00,2013-02-06 05:19:00,
2013-02-06 00:24:00,23.1,20.6,29.92,South,183,0.0,3.0,90,0.00,,,0.00,VWS V14.00,2013-02-06 05:24:00,
2013-02-06 00:29:00,23.1,20.9,29.92,South,183,0.0,3.0,91,0.00,,,0.00,VWS V14.00,2013-02-06 05:29:00,
2013-02-06 00:34:00,23.1,20.6,29.92,South,183,1.0,3.0,90,0.00,,,0.00,VWS V14.00,2013-02-06 05:34:00,
2013-02-06 00:39:00,23.1,20.9,29.92,South,183,2.0,3.0,91,0.00,,,0.00,VWS V14.00,2013-02-06 05:39:00,
2013-02-06 00:44:00,23.3,21.1,29.91,South,183,2.0,3.0,91,0.00,,,0.00,VWS V14.00,2013-02-06 05:44:00,
2013-02-06 00:49:00,23.1,21.1,29.91,South,183,0.0,3.0,92,0.00,,,0.00,VWS V14.00,2013-02-06 05:49:00,
2013-02-06 00:54:00,23.1,21.1,29.91,South,183,1.0,3.0,92,0.00,,,0.00,VWS V14.00,2013-02-06 05:54:00,
2013-02-06 00:59:00,23.3,21.3,29.92,South,183,0.0,3.0,92,0.00,,,0.00,VWS V14.00,2013-02-06 05:59:00,
2013-02-06 01:04:00,23.3,21.3,29.92,South,183,0.0,2.0,92,0.00,,,0.00,VWS V14.00,2013-02-06 06:04:00,
2013-02-06 01:09:00,23.3,21.3,29.92,South,183,0.0,2.0,92,0.00,,,0.00,VWS V14.00,2013-02-06 06:09:00,
2013-02-06 01:14:00,23.3,21.3,29.93,South,183,1.0,3.0,92,0.00,,,0.00,VWS V14.00,2013-02-06 06:14:00,
2013-02-06 01:19:00,23.3,21.3,29.92,South,183,0.0,3.0,92,0.00,,,0.00,VWS V14.00,2013-02-06 06:19:00,
2013-02-06 01:24:00,23.3,21.3,29.92,South,183,0.0,3.0,92,0.00,,,0.00,VWS V14.00,2013-02-06 06:24:00,
2013-02-06 01:29:00,23.3,21.6,29.92,South,183,0.0,3.0,93,0.00,,,0.00,VWS V14.00,2013-02-06 06:29:00,
2013-02-06 01:34:00,23.5,21.5,29.93,South,183,1.0,1.0,92,0.00,,,0.00,VWS V14.00,2013-02-06 06:34:00,
2013-02-06 01:39:00,23.4,21.7,29.92,South,183,0.0,2.0,93,0.00,,,0.00,VWS V14.00,2013-02-06 06:39:00,
2013-02-06 01:44:00,23.4,21.7,29.92,South,183,0.0,2.0,93,0.00,,,0.00,VWS V14.00,2013-02-06 06:44:00,
2013-02-06 01:49:00,23.4,21.7,29.92,South,183,0.0,2.0,93,0.00,,,0.00,VWS V14.00,2013-02-06 06:49:00,
2013-02-06 01:54:00,23.4,21.7,29.93,South,183,0.0,2.0,93,0.00,,,0.00,VWS V14.00,2013-02-06 06:54:00,
2013-02-06 01:59:00,23.4,21.7,29.92,South,183,0.0,2.0,93,0.00,,,0.00,VWS V14.00,2013-02-06 06:59:00,
2013-02-06 02:04:00,23.4,21.7,29.92,South,183,0.0,2.0,93,0.00,,,0.00,VWS V14.00,2013-02-06 07:04:00,
2013-02-06 02:09:00,23.4,21.9,29.92,South,183,0.0,2.0,94,0.00,,,0.00,VWS V14.00,2013-02-06 07:09:00,
2013-02-06 02:14:00,23.4,21.9,29.92,South,183,0.0,2.0,94,0.00,,,0.00,VWS V14.00,2013-02-06 07:14:00,
2013-02-06 02:19:00,23.4,21.7,29.92,South,183,0.0,2.0,93,0.00,,,0.00,VWS V14.00,2013-02-06 07:19:00,
2013-02-06 02:24:00,23.4,21.7,29.92,South,183,0.0,2.0,93,0.00,,,0.00,VWS V14.00,2013-02-06 07:24:00,
2013-02-06 02:29:00,23.4,21.9,29.92,South,183,0.0,2.0,94,0.00,,,0.00,VWS V14.00,2013-02-06 07:29:00,
2013-02-06 02:34:00,23.4,21.9,29.91,South,183,0.0,0.0,94,0.00,,,0.00,VWS V14.00,2013-02-06 07:34:00,
2013-02-06 02:39:00,23.4,21.9,29.92,South,183,0.0,0.0,94,0.00,,,0.00,VWS V14.00,2013-02-06 07:39:00,
2013-02-06 02:44:00,23.4,21.9,29.91,South,183,0.0,0.0,94,0.00,,,0.00,VWS V14.00,2013-02-06 07:44:00,
2013-02-06 02:49:00,23.5,22.0,29.91,South,183,0.0,0.0,94,0.00,,,0.00,VWS V14.00,2013-02-06 07:49:00,
2013-02-06 02:54:00,23.4,21.9,29.91,South,183,0.0,0.0,94,0.00,,,0.00,VWS V14.00,2013-02-06 07:54:00,
2013-02-06 02:59:00,23.4,21.9,29.91,South,183,0.0,0.0,94,0.00,,,0.00,VWS V14.00,2013-02-06 07:59:00,
2013-02-06 03:04:00,23.4,21.9,29.90,South,183,0.0,2.0,94,0.00,,,0.00,VWS V14.00,2013-02-06 08:04:00,
2013-02-06 03:09:00,23.4,21.9,29.90,South,183,0.0,2.0,94,0.00,,,0.00,VWS V14.00,2013-02-06 08:09:00,
2013-02-06 03:14:00,23.3,21.8,29.91,South,183,0.0,2.0,94,0.00,,,0.00,VWS V14.00,2013-02-06 08:14:00,
2013-02-06 03:19:00,23.3,21.8,29.90,South,183,0.0,2.0,94,0.00,,,0.00,VWS V14.00,2013-02-06 08:19:00,
2013-02-06 03:24:00,23.3,21.8,29.91,South,183,0.0,2.0,94,0.00,,,0.00,VWS V14.00,2013-02-06 08:24:00,
2013-02-06 03:29:00,23.3,21.8,29.91,South,183,0.0,2.0,94,0.00,,,0.00,VWS V14.00,2013-02-06 08:29:00,
2013-02-06 03:34:00,23.3,21.8,29.91,South,183,0.0,0.0,94,0.00,,,0.00,VWS V14.00,2013-02-06 08:34:00,
2013-02-06 03:39:00,23.1,21.6,29.91,South,183,0.0,0.0,94,0.00,,,0.00,VWS V14.00,2013-02-06 08:39:00,
2013-02-06 03:44:00,23.0,21.5,29.90,South,183,0.0,0.0,94,0.00,,,0.00,VWS V14.00,2013-02-06 08:44:00,
2013-02-06 03:49:00,23.0,21.5,29.91,South,183,0.0,0.0,94,0.00,,,0.00,VWS V14.00,2013-02-06 08:49:00,
2013-02-06 03:54:00,23.0,21.5,29.90,South,183,0.0,0.0,94,0.00,,,0.00,VWS V14.00,2013-02-06 08:54:00,
2013-02-06 03:59:00,23.0,21.5,29.90,South,183,0.0,0.0,94,0.00,,,0.00,VWS V14.00,2013-02-06 08:59:00,
2013-02-06 04:04:00,22.8,21.3,29.90,South,183,0.0,0.0,94,0.00,,,0.00,VWS V14.00,2013-02-06 09:04:00,
2013-02-06 04:09:00,22.8,21.3,29.90,South,183,0.0,0.0,94,0.00,,,0.00,VWS V14.00,2013-02-06 09:09:00,
2013-02-06 04:14:00,22.8,21.3,29.91,South,183,0.0,0.0,94,0.00,,,0.00,VWS V14.00,2013-02-06 09:14:00,
2013-02-06 04:19:00,22.8,21.3,29.90,South,183,0.0,0.0,94,0.00,,,0.00,VWS V14.00,2013-02-06 09:19:00,
2013-02-06 04:24:00,22.8,21.3,29.90,South,183,0.0,0.0,94,0.00,,,0.00,VWS V14.00,2013-02-06 09:24:00,
2013-02-06 04:29:00,22.8,21.3,29.92,South,183,0.0,0.0,94,0.00,,,0.00,VWS V14.00,2013-02-06 09:29:00,
2013-02-06 04:34:00,22.8,21.3,29.91,South,183,0.0,0.0,94,0.00,,,0.00,VWS V14.00,2013-02-06 09:34:00,
2013-02-06 04:39:00,22.8,21.3,29.91,South,183,0.0,0.0,94,0.00,,,0.00,VWS V14.00,2013-02-06 09:39:00,
2013-02-06 04:44:00,22.8,21.3,29.91,South,183,0.0,0.0,94,0.00,,,0.00,VWS V14.00,2013-02-06 09:44:00,
2013-02-06 04:49:00,22.8,21.3,29.91,South,183,0.0,0.0,94,0.00,,,0.00,VWS V14.00,2013-02-06 09:49:00,
2013-02-06 04:54:00,22.7,21.2,29.92,South,183,0.0,0.0,94,0.00,,,0.00,VWS V14.00,2013-02-06 09:54:00,
2013-02-06 04:59:00,22.7,21.2,29.91,South,183,0.0,0.0,94,0.00,,,0.00,VWS V14.00,2013-02-06 09:59:00,
2013-02-06 05:04:00,22.8,21.3,29.92,South,183,0.0,0.0,94,0.00,,OVC060,0.00,VWS V14.00,2013-02-06 10:04:00,
2013-02-06 05:09:00,22.8,21.3,29.92,South,183,0.0,0.0,94,0.00,,OVC060,0.00,VWS V14.00,2013-02-06 10:09:00,
2013-02-06 05:14:00,22.8,21.6,29.92,South,183,0.0,0.0,95,0.00,,OVC060,0.00,VWS V14.00,2013-02-06 10:14:00,
2013-02-06 05:19:00,22.8,21.3,29.93,South,183,0.0,0.0,94,0.00,,OVC060,0.00,VWS V14.00,2013-02-06 10:19:00,
2013-02-06 05:24:00,22.8,21.3,29.93,South,183,0.0,0.0,94,0.00,,OVC060,0.00,VWS V14.00,2013-02-06 10:24:00,
2013-02-06 05:29:00,22.8,21.6,29.92,South,183,0.0,0.0,95,0.00,,OVC060,0.00,VWS V14.00,2013-02-06 10:29:00,
2013-02-06 05:34:00,22.8,21.3,29.94,South,183,0.0,0.0,94,0.00,,OVC060,0.00,VWS V14.00,2013-02-06 10:34:00,
2013-02-06 05:39:00,22.8,21.6,29.93,South,183,0.0,0.0,95,0.00,,OVC060,0.00,VWS V14.00,2013-02-06 10:39:00,
2013-02-06 05:44:00,22.8,21.6,29.94,South,183,0.0,0.0,95,0.00,,OVC060,0.00,VWS V14.00,2013-02-06 10:44:00,
2013-02-06 05:49:00,22.8,21.6,29.94,South,183,0.0,0.0,95,0.00,,OVC060,0.00,VWS V14.00,2013-02-06 10:49:00,
2013-02-06 05:54:00,23.0,21.8,29.93,South,183,0.0,0.0,95,0.00,,OVC060,0.00,VWS V14.00,2013-02-06 10:54:00,
2013-02-06 05:59:00,23.0,21.5,29.93,South,183,0.0,0.0,94,0.00,,OVC060,0.00,VWS V14.00,2013-02-06 10:59:00,
2013-02-06 06:04:00,23.0,21.8,29.94,South,183,0.0,0.0,95,0.00,,OVC055,0.00,VWS V14.00,2013-02-06 11:04:00,
2013-02-06 06:09:00,23.0,21.8,29.94,South,183,0.0,0.0,95,0.00,,OVC055,0.00,VWS V14.00,2013-02-06 11:09:00,
2013-02-06 06:14:00,22.8,21.3,29.94,South,183,0.0,0.0,94,0.00,,OVC055,0.00,VWS V14.00,2013-02-06 11:14:00,
2013-02-06 06:19:00,22.8,21.6,29.94,South,183,0.0,0.0,95,0.00,,OVC055,0.00,VWS V14.00,2013-02-06 11:19:00,
2013-02-06 06:24:00,22.8,21.6,29.94,South,183,0.0,0.0,95,0.00,,OVC055,0.00,VWS V14.00,2013-02-06 11:24:00,
2013-02-06 06:29:00,22.8,21.6,29.94,South,183,0.0,0.0,95,0.00,,OVC055,0.00,VWS V14.00,2013-02-06 11:29:00,
2013-02-06 06:34:00,23.0,21.8,29.95,South,183,0.0,1.0,95,0.00,,OVC055,0.00,VWS V14.00,2013-02-06 11:34:00,
2013-02-06 06:39:00,23.0,21.8,29.95,South,183,0.0,1.0,95,0.00,,OVC055,0.00,VWS V14.00,2013-02-06 11:39:00,
2013-02-06 06:44:00,23.0,21.8,29.95,South,183,0.0,1.0,95,0.00,,OVC055,0.00,VWS V14.00,2013-02-06 11:44:00,
2013-02-06 06:49:00,23.0,21.8,29.95,South,183,0.0,1.0,95,0.00,,OVC055,0.00,VWS V14.00,2013-02-06 11:49:00,
2013-02-06 06:54:00,22.8,21.6,29.95,South,183,0.0,1.0,95,0.00,,OVC055,0.00,VWS V14.00,2013-02-06 11:54:00,
2013-02-06 06:59:00,22.7,21.5,29.95,South,183,0.0,1.0,95,0.00,,OVC055,0.00,VWS V14.00,2013-02-06 11:59:00,
2013-02-06 07:04:00,22.7,21.5,29.95,South,183,0.0,0.0,95,0.00,,,0.00,VWS V14.00,2013-02-06 12:04:00,
2013-02-06 07:09:00,22.5,21.3,29.95,South,183,0.0,0.0,95,0.00,,,0.00,VWS V14.00,2013-02-06 12:09:00,
2013-02-06 07:14:00,22.5,21.3,29.96,South,183,0.0,0.0,95,0.00,,,0.00,VWS V14.00,2013-02-06 12:14:00,
2013-02-06 07:19:00,22.5,21.3,29.95,South,183,0.0,0.0,95,0.00,,,0.00,VWS V14.00,2013-02-06 12:19:00,
2013-02-06 07:24:00,22.4,21.2,29.96,South,183,0.0,0.0,95,0.00,,,0.00,VWS V14.00,2013-02-06 12:24:00,
2013-02-06 07:29:00,22.4,21.2,29.96,South,183,0.0,0.0,95,0.00,,,0.00,VWS V14.00,2013-02-06 12:29:00,
2013-02-06 07:34:00,22.2,21.0,29.96,South,183,0.0,0.0,95,0.00,,,0.00,VWS V14.00,2013-02-06 12:34:00,
2013-02-06 07:39:00,22.1,20.9,29.97,South,183,0.0,0.0,95,0.00,,,0.00,VWS V14.00,2013-02-06 12:39:00,
2013-02-06 07:44:00,22.1,20.9,29.96,South,183,0.0,0.0,95,0.00,,,0.00,VWS V14.00,2013-02-06 12:44:00,
2013-02-06 07:49:00,21.9,20.7,29.97,South,183,0.0,0.0,95,0.00,,,0.00,VWS V14.00,2013-02-06 12:49:00,
2013-02-06 07:54:00,21.9,20.7,29.97,South,183,0.0,0.0,95,0.00,,,0.00,VWS V14.00,2013-02-06 12:54:00,
2013-02-06 07:59:00,21.8,20.6,29.97,South,183,0.0,0.0,95,0.00,,,0.00,VWS V14.00,2013-02-06 12:59:00,
2013-02-06 08:04:00,21.8,20.6,29.97,South,183,0.0,0.0,95,0.00,,,0.00,VWS V14.00,2013-02-06 13:04:00,
2013-02-06 08:09:00,22.1,20.9,29.97,South,183,0.0,0.0,95,0.00,,,0.00,VWS V14.00,2013-02-06 13:09:00,
2013-02-06 08:14:00,22.4,21.4,29.97,South,183,0.0,0.0,96,0.00,,,0.00,VWS V14.00,2013-02-06 13:14:00,
2013-02-06 08:19:00,22.8,21.8,29.98,South,183,0.0,0.0,96,0.00,,,0.00,VWS V14.00,2013-02-06 13:19:00,
2013-02-06 08:24:00,23.4,22.4,29.98,South,183,0.0,0.0,96,0.00,,,0.00,VWS V14.00,2013-02-06 13:24:00,
2013-02-06 08:29:00,23.8,22.8,29.98,South,183,0.0,0.0,96,0.00,,,0.00,VWS V14.00,2013-02-06 13:29:00,
2013-02-06 08:34:00,24.2,23.2,29.98,South,183,0.0,2.0,96,0.00,,,0.00,VWS V14.00,2013-02-06 13:34:00,
2013-02-06 08:39:00,24.5,23.5,29.98,South,183,0.0,2.0,96,0.00,,,0.00,VWS V14.00,2013-02-06 13:39:00,
2013-02-06 08:44:00,24.9,23.9,29.98,South,183,3.0,3.0,96,0.00,,,0.00,VWS V14.00,2013-02-06 13:44:00,
2013-02-06 08:49:00,25.2,24.2,29.98,South,183,1.0,3.0,96,0.00,,,0.00,VWS V14.00,2013-02-06 13:49:00,
2013-02-06 08:54:00,25.5,24.5,29.98,South,183,1.0,3.0,96,0.00,,,0.00,VWS V14.00,2013-02-06 13:54:00,
2013-02-06 08:59:00,25.8,24.8,29.98,South,183,0.0,3.0,96,0.00,,,0.00,VWS V14.00,2013-02-06 13:59:00,
2013-02-06 09:04:00,25.9,24.7,29.97,South,183,0.0,3.0,95,0.00,,,0.00,VWS V14.00,2013-02-06 14:04:00,
2013-02-06 09:09:00,26.3,25.1,29.98,South,183,1.0,3.0,95,0.00,,,0.00,VWS V14.00,2013-02-06 14:09:00,
2013-02-06 09:14:00,26.5,25.5,29.98,WNW,291,5.0,6.0,96,0.00,,,0.00,VWS V14.00,2013-02-06 14:14:00,
2013-02-06 09:19:00,27.0,25.8,29.97,WNW,298,1.0,6.0,95,0.00,,,0.00,VWS V14.00,2013-02-06 14:19:00,
2013-02-06 09:24:00,27.4,26.2,29.98,WNW,290,0.0,6.0,95,0.00,,,0.00,VWS V14.00,2013-02-06 14:24:00,
2013-02-06 09:29:00,27.7,26.5,29.98,WNW,290,1.0,6.0,95,0.00,,,0.00,VWS V14.00,2013-02-06 14:29:00,
2013-02-06 09:34:00,28.0,26.8,29.98,WNW,290,2.0,3.0,95,0.00,,,0.00,VWS V14.00,2013-02-06 14:34:00,
2013-02-06 09:39:00,28.2,26.7,29.98,WNW,290,0.0,3.0,94,0.00,,,0.00,VWS V14.00,2013-02-06 14:39:00,
2013-02-06 09:44:00,28.5,27.2,29.99,WNW,290,1.0,3.0,95,0.00,,,0.00,VWS V14.00,2013-02-06 14:44:00,
2013-02-06 09:49:00,29.2,27.7,29.98,NW,314,1.0,10.0,94,0.00,,,0.00,VWS V14.00,2013-02-06 14:49:00,
2013-02-06 09:54:00,29.6,27.8,29.99,NW,306,0.0,10.0,93,0.00,,,0.00,VWS V14.00,2013-02-06 14:54:00,
2013-02-06 09:59:00,30.4,28.4,29.99,NW,306,3.0,10.0,92,0.00,,,0.00,VWS V14.00,2013-02-06 14:59:00,
2013-02-06 10:04:00,30.8,28.5,29.98,WNW,287,1.0,5.0,91,0.00,,,0.00,VWS V14.00,2013-02-06 15:04:00,
2013-02-06 10:09:00,31.3,28.4,29.98,West,281,1.0,5.0,89,0.00,,,0.00,VWS V14.00,2013-02-06 15:09:00,
2013-02-06 10:14:00,31.6,28.2,29.98,NW,316,4.0,10.0,87,0.00,,,0.00,VWS V14.00,2013-02-06 15:14:00,
2013-02-06 10:19:00,32.0,28.3,29.98,NW,326,6.0,10.0,86,0.00,,,0.00,VWS V14.00,2013-02-06 15:19:00,
2013-02-06 10:24:00,32.0,27.4,29.97,SW,231,4.0,10.0,83,0.00,,,0.00,VWS V14.00,2013-02-06 15:24:00,
2013-02-06 10:29:00,32.2,26.4,29.97,NW,311,2.0,10.0,79,0.00,,,0.00,VWS V14.00,2013-02-06 15:29:00,
2013-02-06 10:34:00,33.0,27.2,29.97,NNW,342,5.0,5.0,79,0.00,,,0.00,VWS V14.00,2013-02-06 15:34:00,
2013-02-06 10:39:00,33.3,26.6,29.97,NW,320,1.0,8.0,76,0.00,,,0.00,VWS V14.00,2013-02-06 15:39:00,
2013-02-06 10:44:00,33.7,26.3,29.99,NW,322,6.0,9.0,74,0.00,,,0.00,VWS V14.00,2013-02-06 15:44:00,
2013-02-06 10:49:00,33.7,25.6,29.98,North,359,3.0,13.0,72,0.00,,,0.00,VWS V14.00,2013-02-06 15:49:00,
2013-02-06 10:54:00,34.0,25.6,29.99,NNW,340,7.0,13.0,71,0.01,,,0.01,VWS V14.00,2013-02-06 15:54:00,
2013-02-06 10:59:00,34.0,25.3,29.99,NNW,336,1.0,13.0,70,0.01,,,0.01,VWS V14.00,2013-02-06 15:59:00,
2013-02-06 11:04:00,34.5,25.7,29.98,West,265,3.0,6.0,70,0.01,,CLR,0.01,VWS V14.00,2013-02-06 16:04:00,
2013-02-06 11:09:00,35.0,25.9,29.99,NW,305,6.0,8.0,69,0.01,,CLR,0.01,VWS V14.00,2013-02-06 16:09:00,
2013-02-06 11:14:00,35.3,25.5,29.98,WNW,289,2.0,15.0,67,0.01,,CLR,0.01,VWS V14.00,2013-02-06 16:14:00,
2013-02-06 11:19:00,35.1,24.9,29.98,NW,310,6.0,15.0,66,0.01,,CLR,0.01,VWS V14.00,2013-02-06 16:19:00,
2013-02-06 11:24:00,35.3,25.1,29.98,SSW,211,3.0,15.0,66,0.01,,CLR,0.01,VWS V14.00,2013-02-06 16:24:00,
2013-02-06 11:29:00,35.5,25.3,29.98,WNW,301,2.0,15.0,66,0.01,,CLR,0.01,VWS V14.00,2013-02-06 16:29:00,
2013-02-06 11:34:00,35.8,24.8,29.98,SSW,198,2.0,9.0,64,0.01,,CLR,0.02,VWS V14.00,2013-02-06 16:34:00,
2013-02-06 11:39:00,36.1,24.7,29.98,NW,305,3.0,10.0,63,0.01,,CLR,0.02,VWS V14.00,2013-02-06 16:39:00,
2013-02-06 11:44:00,36.4,25.0,29.98,WNW,289,3.0,10.0,63,0.01,,CLR,0.02,VWS V14.00,2013-02-06 16:44:00,
2013-02-06 11:49:00,36.1,24.4,29.98,NW,316,1.0,10.0,62,0.01,,CLR,0.02,VWS V14.00,2013-02-06 16:49:00,
2013-02-06 11:54:00,36.1,24.4,29.97,NE,55,2.0,11.0,62,0.01,,CLR,0.02,VWS V14.00,2013-02-06 16:54:00,
2013-02-06 11:59:00,36.0,23.5,29.97,NNW,340,7.0,13.0,60,0.01,,CLR,0.02,VWS V14.00,2013-02-06 16:59:00,
2013-02-06 12:04:00,35.5,23.4,29.98,West,281,4.0,11.0,61,0.01,,BKN070,0.02,VWS V14.00,2013-02-06 17:04:00,
2013-02-06 12:09:00,35.5,23.0,29.97,North,358,3.0,11.0,60,0.01,,BKN070,0.02,VWS V14.00,2013-02-06 17:09:00,
2013-02-06 12:14:00,35.7,23.2,29.97,WNW,295,2.0,13.0,60,0.01,,BKN070,0.02,VWS V14.00,2013-02-06 17:14:00,
2013-02-06 12:19:00,36.4,24.6,29.97,North,0,4.0,13.0,62,0.01,,BKN070,0.02,VWS V14.00,2013-02-06 17:19:00,
2013-02-06 12:24:00,36.3,23.4,29.97,WNW,284,8.0,15.0,59,0.01,,BKN070,0.02,VWS V14.00,2013-02-06 17:24:00,
2013-02-06 12:29:00,36.0,23.5,29.98,NW,315,3.0,15.0,60,0.01,,BKN070,0.02,VWS V14.00,2013-02-06 17:29:00,
2013-02-06 12:34:00,36.1,24.0,29.97,North,356,3.0,8.0,61,0.01,,BKN070,0.02,VWS V14.00,2013-02-06 17:34:00,
2013-02-06 12:39:00,36.7,24.1,29.97,North,6,3.0,8.0,60,0.00,,BKN070,0.02,VWS V14.00,2013-02-06 17:39:00,
2013-02-06 12:44:00,36.7,23.7,29.97,NW,307,5.0,15.0,59,0.00,,BKN070,0.02,VWS V14.00,2013-02-06 17:44:00,
2013-02-06 12:49:00,36.0,23.1,29.98,SW,234,3.0,15.0,59,0.00,,BKN070,0.02,VWS V14.00,2013-02-06 17:49:00,
2013-02-06 12:54:00,36.0,22.7,29.97,WSW,250,7.0,15.0,58,0.00,,BKN070,0.02,VWS V14.00,2013-02-06 17:54:00,
2013-02-06 12:59:00,36.3,22.1,29.98,North,355,2.0,15.0,56,0.00,,BKN070,0.02,VWS V14.00,2013-02-06 17:59:00,
2013-02-06 13:04:00,36.8,23.4,29.98,WSW,238,6.0,12.0,58,0.00,,BKN046,0.02,VWS V14.00,2013-02-06 18:04:00,
2013-02-06 13:09:00,36.7,22.5,29.98,WSW,254,3.0,12.0,56,0.00,,BKN046,0.02,VWS V14.00,2013-02-06 18:09:00,
2013-02-06 13:14:00,36.8,22.2,29.98,NW,318,4.0,12.0,55,0.00,,BKN046,0.02,VWS V14.00,2013-02-06 18:14:00,
2013-02-06 13:19:00,36.5,22.3,29.98,North,0,3.0,12.0,56,0.00,,BKN046,0.02,VWS V14.00,2013-02-06 18:19:00,
2013-02-06 13:24:00,36.5,21.9,29.98,South,179,8.0,15.0,55,0.00,,BKN046,0.02,VWS V14.00,2013-02-06 18:24:00,
2013-02-06 13:29:00,36.5,22.7,29.99,NNW,348,5.0,15.0,57,0.00,,BKN046,0.02,VWS V14.00,2013-02-06 18:29:00,
2013-02-06 13:34:00,36.4,22.2,29.99,WSW,238,4.0,10.0,56,0.00,,BKN046,0.02,VWS V14.00,2013-02-06 18:34:00,
2013-02-06 13:39:00,36.1,21.9,29.98,NNW,330,3.0,20.0,56,0.00,,BKN046,0.02,VWS V14.00,2013-02-06 18:39:00,
2013-02-06 13:44:00,36.1,22.8,29.99,WNW,289,5.0,20.0,58,0.00,,BKN046,0.02,VWS V14.00,2013-02-06 18:44:00,
2013-02-06 13:49:00,36.1,22.8,29.99,NW,308,4.0,20.0,58,0.00,,BKN046,0.02,VWS V14.00,2013-02-06 18:49:00,
2013-02-06 13:54:00,36.4,22.6,29.98,NW,319,5.0,20.0,57,0.00,,BKN046,0.02,VWS V14.00,2013-02-06 18:54:00,
2013-02-06 13:59:00,36.4,22.6,29.99,WSW,240,3.0,20.0,57,0.00,,BKN046,0.02,VWS V14.00,2013-02-06 18:59:00,
2013-02-06 14:04:00,36.5,23.1,29.99,WSW,243,4.0,9.0,58,0.00,,OVC055,0.02,VWS V14.00,2013-02-06 19:04:00,
2013-02-06 14:09:00,37.0,23.6,29.99,WSW,238,2.0,9.0,58,0.00,,OVC055,0.02,VWS V14.00,2013-02-06 19:09:00,
2013-02-06 14:14:00,37.1,23.7,30.00,SSW,201,5.0,9.0,58,0.00,,OVC055,0.02,VWS V14.00,2013-02-06 19:14:00,
2013-02-06 14:19:00,37.3,24.3,29.99,SW,226,2.0,10.0,59,0.00,,OVC055,0.02,VWS V14.00,2013-02-06 19:19:00,
2013-02-06 14:24:00,37.5,24.1,29.99,SSW,209,4.0,10.0,58,0.00,,OVC055,0.02,VWS V14.00,2013-02-06 19:24:00,
2013-02-06 14:29:00,37.3,23.5,29.99,SW,217,3.0,15.0,57,0.00,,OVC055,0.02,VWS V14.00,2013-02-06 19:29:00,
2013-02-06 14:34:00,36.1,22.8,29.99,WNW,297,2.0,16.0,58,0.00,,OVC055,0.02,VWS V14.00,2013-02-06 19:34:00,
2013-02-06 14:39:00,35.3,22.4,30.00,WNW,297,5.0,16.0,59,0.00,,OVC055,0.02,VWS V14.00,2013-02-06 19:39:00,
2013-02-06 14:44:00,34.7,22.2,30.01,WSW,240,2.0,16.0,60,0.00,,OVC055,0.02,VWS V14.00,2013-02-06 19:44:00,
2013-02-06 14:49:00,34.4,22.4,30.01,WSW,240,5.0,16.0,61,0.00,,OVC055,0.02,VWS V14.00,2013-02-06 19:49:00,
2013-02-06 14:54:00,34.3,22.3,30.01,NNW,338,4.0,16.0,61,0.00,,OVC055,0.02,VWS V14.00,2013-02-06 19:54:00,
2013-02-06 14:59:00,34.3,21.9,30.01,NNW,340,4.0,16.0,60,0.00,,OVC055,0.02,VWS V14.00,2013-02-06 19:59:00,
2013-02-06 15:04:00,34.1,22.1,30.01,NW,314,4.0,11.0,61,0.00,,BKN045,0.02,VWS V14.00,2013-02-06 20:04:00,
2013-02-06 15:09:00,33.7,21.7,30.01,NW,323,7.0,14.0,61,0.00,,BKN045,0.02,VWS V14.00,2013-02-06 20:09:00,
2013-02-06 15:14:00,33.5,21.9,30.02,West,279,6.0,16.0,62,0.00,,BKN045,0.02,VWS V14.00,2013-02-06 20:14:00,
2013-02-06 15:19:00,33.5,21.5,30.01,SSW,196,2.0,16.0,61,0.00,,BKN045,0.02,VWS V14.00,2013-02-06 20:19:00,
2013-02-06 15:24:00,33.7,21.3,30.01,NW,319,6.0,16.0,60,0.00,,BKN045,0.02,VWS V14.00,2013-02-06 20:24:00,
2013-02-06 15:29:00,33.7,20.9,30.01,East,86,4.0,16.0,59,0.00,,BKN045,0.02,VWS V14.00,2013-02-06 20:29:00,
2013-02-06 15:34:00,33.5,21.1,30.02,North,4,1.0,5.0,60,0.00,,BKN045,0.02,VWS V14.00,2013-02-06 20:34:00,
2013-02-06 15:39:00,33.7,21.3,30.02,SW,227,1.0,8.0,60,0.00,,BKN045,0.02,VWS V14.00,2013-02-06 20:39:00,
2013-02-06 15:44:00,33.7,21.3,30.02,North,356,7.0,9.0,60,0.00,,BKN045,0.02,VWS V14.00,2013-02-06 20:44:00,
2013-02-06 15:49:00,33.5,21.1,30.02,NW,322,2.0,9.0,60,0.00,,BKN045,0.02,VWS V14.00,2013-02-06 20:49:00,
2013-02-06 15:54:00,33.4,20.2,30.03,WSW,250,1.0,11.0,58,0.00,,BKN045,0.02,VWS V14.00,2013-02-06 20:54:00,
2013-02-06 15:59:00,33.3,20.1,30.03,WSW,237,2.0,11.0,58,0.00,,BKN045,0.02,VWS V14.00,2013-02-06 20:59:00,
2013-02-06 16:04:00,33.3,19.7,30.03,SSW,192,3.0,12.0,57,0.00,,BKN045,0.02,VWS V14.00,2013-02-06 21:04:00,
2013-02-06 16:09:00,33.4,19.8,30.03,WNW,297,6.0,12.0,57,0.00,,BKN045,0.02,VWS V14.00,2013-02-06 21:09:00,
2013-02-06 16:14:00,33.4,19.4,30.03,WNW,301,6.0,12.0,56,0.00,,BKN045,0.02,VWS V14.00,2013-02-06 21:14:00,
2013-02-06 16:19:00,33.4,19.4,30.03,NW,310,5.0,12.0,56,0.00,,BKN045,0.02,VWS V14.00,2013-02-06 21:19:00,
2013-02-06 16:24:00,33.3,19.3,30.04,North,0,2.0,12.0,56,0.00,,BKN045,0.02,VWS V14.00,2013-02-06 21:24:00,
2013-02-06 16:29:00,33.2,19.2,30.04,SSW,213,4.0,12.0,56,0.00,,BKN045,0.02,VWS V14.00,2013-02-06 21:29:00,
2013-02-06 16:34:00,33.1,18.7,30.04,WNW,295,4.0,9.0,55,0.00,,BKN045,0.02,VWS V14.00,2013-02-06 21:34:00,
2013-02-06 16:39:00,33.0,19.0,30.04,SSE,154,2.0,9.0,56,0.00,,BKN045,0.02,VWS V14.00,2013-02-06 21:39:00,
2013-02-06 16:44:00,32.7,18.8,30.05,SSE,154,2.0,9.0,56,0.00,,BKN045,0.02,VWS V14.00,2013-02-06 21:44:00,
2013-02-06 16:49:00,32.6,18.2,30.05,WSW,254,1.0,9.0,55,0.00,,BKN045,0.02,VWS V14.00,2013-02-06 21:49:00,
2013-02-06 16:54:00,32.3,18.4,30.05,WSW,254,1.0,9.0,56,0.00,,BKN045,0.02,VWS V14.00,2013-02-06 21:54:00,
2013-02-06 16:59:00,32.3,18.4,30.05,WNW,297,7.0,9.0,56,0.00,,BKN045,0.02,VWS V14.00,2013-02-06 21:59:00,
2013-02-06 17:04:00,32.2,18.3,30.05,NW,313,3.0,5.0,56,0.00,,FEW050,0.02,VWS V14.00,2013-02-06 22:04:00,
2013-02-06 17:09:00,32.0,17.7,30.06,WSW,249,2.0,9.0,55,0.00,,FEW050,0.02,VWS V14.00,2013-02-06 22:09:00,
2013-02-06 17:14:00,31.9,17.6,30.06,WNW,296,3.0,9.0,55,0.00,,FEW050,0.02,VWS V14.00,2013-02-06 22:14:00,
2013-02-06 17:19:00,31.7,17.8,30.07,NNW,341,1.0,9.0,56,0.00,,FEW050,0.02,VWS V14.00,2013-02-06 22:19:00,
2013-02-06 17:24:00,31.4,17.5,30.07,NNW,333,2.0,9.0,56,0.00,,FEW050,0.02,VWS V14.00,2013-02-06 22:24:00,
2013-02-06 17:29:00,31.3,17.0,30.08,NW,324,9.0,9.0,55,0.00,,FEW050,0.02,VWS V14.00,2013-02-06 22:29:00,
2013-02-06 17:34:00,31.3,16.2,30.08,NW,321,4.0,8.0,53,0.00,,FEW050,0.02,VWS V14.00,2013-02-06 22:34:00,
2013-02-06 17:39:00,31.3,16.2,30.08,North,0,2.0,9.0,53,0.00,,FEW050,0.02,VWS V14.00,2013-02-06 22:39:00,
2013-02-06 17:44:00,31.0,15.9,30.09,West,269,6.0,9.0,53,0.00,,FEW050,0.02,VWS V14.00,2013-02-06 22:44:00,
2013-02-06 17:49:00,30.8,15.7,30.08,NW,315,6.0,9.0,53,0.00,,FEW050,0.02,VWS V14.00,2013-02-06 22:49:00,
2013-02-06 17:54:00,30.7,15.6,30.09,NNW,328,2.0,9.0,53,0.00,,FEW050,0.02,VWS V14.00,2013-02-06 22:54:00,
2013-02-06 17:59:00,30.6,15.5,30.10,North,351,2.0,9.0,53,0.00,,FEW050,0.02,VWS V14.00,2013-02-06 22:59:00,
2013-02-06 18:04:00,30.2,15.1,30.10,North,351,1.0,4.0,53,0.00,,CLR,0.02,VWS V14.00,2013-02-06 23:04:00,
2013-02-06 18:09:00,30.0,15.4,30.11,NW,312,1.0,4.0,54,0.00,,CLR,0.02,VWS V14.00,2013-02-06 23:09:00,
2013-02-06 18:14:00,29.6,15.4,30.10,NW,323,3.0,6.0,55,0.00,,CLR,0.02,VWS V14.00,2013-02-06 23:14:00,
2013-02-06 18:19:00,29.5,14.9,30.11,WNW,298,5.0,7.0,54,0.00,,CLR,0.02,VWS V14.00,2013-02-06 23:19:00,
2013-02-06 18:24:00,29.5,14.9,30.11,West,260,3.0,9.0,54,0.00,,CLR,0.02,VWS V14.00,2013-02-06 23:24:00,
2013-02-06 18:29:00,29.5,14.5,30.12,North,357,3.0,9.0,53,0.00,,CLR,0.02,VWS V14.00,2013-02-06 23:29:00,
2013-02-06 18:34:00,29.4,14.4,30.12,NNW,344,5.0,7.0,53,0.00,,CLR,0.02,VWS V14.00,2013-02-06 23:34:00,
2013-02-06 18:39:00,29.3,13.9,30.13,NW,316,6.0,8.0,52,0.00,,CLR,0.02,VWS V14.00,2013-02-06 23:39:00,
2013-02-06 18:44:00,29.2,13.3,30.13,NNW,334,3.0,8.0,51,0.00,,CLR,0.02,VWS V14.00,2013-02-06 23:44:00,
2013-02-06 18:49:00,29.1,13.2,30.13,NNW,336,1.0,8.0,51,0.00,,CLR,0.02,VWS V14.00,2013-02-06 23:49:00,
2013-02-06 18:54:00,29.1,13.2,30.13,NW,323,1.0,8.0,51,0.00,,CLR,0.02,VWS V14.00,2013-02-06 23:54:00,
2013-02-06 18:59:00,28.9,12.6,30.14,NNW,333,2.0,8.0,50,0.00,,CLR,0.02,VWS V14.00,2013-02-06 23:59:00,
2013-02-06 19:04:00,28.8,12.5,30.14,North,359,2.0,17.0,50,0.00,,CLR,0.02,VWS V14.00,2013-02-07 00:04:00,
2013-02-06 19:09:00,28.7,12.4,30.14,SW,216,3.0,17.0,50,0.00,,CLR,0.02,VWS V14.00,2013-02-07 00:09:00,
2013-02-06 19:14:00,28.6,12.3,30.14,NNW,343,6.0,17.0,50,0.00,,CLR,0.02,VWS V14.00,2013-02-07 00:14:00,
2013-02-06 19:19:00,28.5,11.8,30.15,WSW,255,1.0,17.0,49,0.00,,CLR,0.02,VWS V14.00,2013-02-07 00:19:00,
2013-02-06 19:24:00,28.5,11.8,30.15,WNW,286,2.0,17.0,49,0.00,,CLR,0.02,VWS V14.00,2013-02-07 00:24:00,
2013-02-06 19:29:00,28.3,11.6,30.16,North,349,2.0,17.0,49,0.00,,CLR,0.02,VWS V14.00,2013-02-07 00:29:00,
2013-02-06 19:34:00,28.1,11.9,30.16,NW,307,5.0,10.0,50,0.00,,CLR,0.02,VWS V14.00,2013-02-07 00:34:00,
2013-02-06 19:39:00,28.0,10.9,30.16,WNW,292,4.0,10.0,48,0.00,,CLR,0.02,VWS V14.00,2013-02-07 00:39:00,
2013-02-06 19:44:00,28.0,10.9,30.17,NNW,343,8.0,15.0,48,0.00,,CLR,0.02,VWS V14.00,2013-02-07 00:44:00,
2013-02-06 19:49:00,28.0,10.9,30.17,WSW,248,4.0,16.0,48,0.00,,CLR,0.02,VWS V14.00,2013-02-07 00:49:00,
2013-02-06 19:54:00,27.9,10.8,30.17,NW,315,1.0,16.0,48,0.00,,CLR,0.02,VWS V14.00,2013-02-07 00:54:00,
2013-02-06 19:59:00,27.7,10.6,30.17,NW,318,3.0,16.0,48,0.00,,CLR,0.02,VWS V14.00,2013-02-07 00:59:00,
2013-02-06 20:04:00,27.6,10.9,30.18,NW,322,3.0,5.0,49,0.00,,CLR,0.02,VWS V14.00,2013-02-07 01:04:00,
2013-02-06 20:09:00,27.4,9.8,30.18,North,0,1.0,9.0,47,0.00,,CLR,0.02,VWS V14.00,2013-02-07 01:09:00,
2013-02-06 20:14:00,27.4,10.3,30.18,NW,318,1.0,12.0,48,0.00,,CLR,0.02,VWS V14.00,2013-02-07 01:14:00,
2013-02-06 20:19:00,27.3,9.7,30.19,North,356,3.0,12.0,47,0.00,,CLR,0.02,VWS V14.00,2013-02-07 01:19:00,
2013-02-06 20:24:00,27.1,9.6,30.19,NW,324,4.0,12.0,47,0.00,,CLR,0.02,VWS V14.00,2013-02-07 01:24:00,
2013-02-06 20:29:00,27.1,9.6,30.19,West,275,4.0,12.0,47,0.00,,CLR,0.02,VWS V14.00,2013-02-07 01:29:00,
2013-02-06 20:34:00,27.0,9.9,30.19,NNW,327,2.0,9.0,48,0.00,,CLR,0.02,VWS V14.00,2013-02-07 01:34:00,
2013-02-06 20:39:00,26.8,9.3,30.19,NNW,336,2.0,12.0,47,0.00,,CLR,0.02,VWS V14.00,2013-02-07 01:39:00,
2013-02-06 20:44:00,26.7,9.7,30.19,NW,322,3.0,12.0,48,0.00,,CLR,0.02,VWS V14.00,2013-02-07 01:44:00,
2013-02-06 20:49:00,26.5,9.5,30.19,NW,308,2.0,12.0,48,0.00,,CLR,0.02,VWS V14.00,2013-02-07 01:49:00,
2013-02-06 20:54:00,26.4,9.8,30.19,NNW,329,3.0,12.0,49,0.00,,CLR,0.02,VWS V14.00,2013-02-07 01:54:00,
2013-02-06 20:59:00,26.2,9.2,30.20,NW,310,5.0,12.0,48,0.00,,CLR,0.02,VWS V14.00,2013-02-07 01:59:00,
2013-02-06 21:04:00,26.3,9.3,30.20,North,357,4.0,8.0,48,0.00,,CLR,0.02,VWS V14.00,2013-02-07 02:04:00,
2013-02-06 21:09:00,26.1,9.1,30.20,NW,315,1.0,8.0,48,0.00,,CLR,0.02,VWS V14.00,2013-02-07 02:09:00,
2013-02-06 21:14:00,25.9,8.5,30.21,West,274,1.0,8.0,47,0.00,,CLR,0.02,VWS V14.00,2013-02-07 02:14:00,
2013-02-06 21:19:00,25.9,8.9,30.21,North,350,1.0,8.0,48,0.00,,CLR,0.02,VWS V14.00,2013-02-07 02:19:00,
2013-02-06 21:24:00,25.8,8.4,30.22,West,272,2.0,8.0,47,0.00,,CLR,0.02,VWS V14.00,2013-02-07 02:24:00,
2013-02-06 21:29:00,25.8,7.9,30.22,NW,309,1.0,8.0,46,0.00,,CLR,0.02,VWS V14.00,2013-02-07 02:29:00,
2013-02-06 21:34:00,25.6,7.7,30.23,NW,319,4.0,10.0,46,0.00,,CLR,0.02,VWS V14.00,2013-02-07 02:34:00,
2013-02-06 21:39:00,25.5,7.6,30.22,WNW,295,2.0,10.0,46,0.00,,CLR,0.02,VWS V14.00,2013-02-07 02:39:00,
2013-02-06 21:44:00,25.5,7.6,30.23,West,281,1.0,10.0,46,0.00,,CLR,0.02,VWS V14.00,2013-02-07 02:44:00,
2013-02-06 21:49:00,25.3,6.9,30.23,WSW,246,2.0,10.0,45,0.00,,CLR,0.02,VWS V14.00,2013-02-07 02:49:00,
2013-02-06 21:54:00,25.2,6.8,30.24,WNW,299,3.0,10.0,45,0.00,,CLR,0.02,VWS V14.00,2013-02-07 02:54:00,
2013-02-06 21:59:00,25.1,6.8,30.23,WNW,286,5.0,10.0,45,0.00,,CLR,0.02,VWS V14.00,2013-02-07 02:59:00,
2013-02-06 22:04:00,25.1,6.3,30.24,West,267,1.0,10.0,44,0.00,,CLR,0.02,VWS V14.00,2013-02-07 03:04:00,
2013-02-06 22:09:00,24.9,6.1,30.24,WNW,302,2.0,10.0,44,0.00,,CLR,0.02,VWS V14.00,2013-02-07 03:09:00,
2013-02-06 22:13:00,24.9,6.6,30.25,South,184,3.0,10.0,45,0.00,,CLR,0.02,VWS V14.00,2013-02-07 03:13:00,
2013-02-06 22:18:00,24.7,5.9,30.25,NW,319,5.0,10.0,44,0.00,,CLR,0.02,VWS V14.00,2013-02-07 03:18:00,
2013-02-06 22:23:00,24.7,5.9,30.25,NW,309,4.0,12.0,44,0.00,,CLR,0.02,VWS V14.00,2013-02-07 03:23:00,
2013-02-06 22:28:00,24.7,5.9,30.25,NW,315,2.0,12.0,44,0.00,,CLR,0.02,VWS V14.00,2013-02-07 03:28:00,
2013-02-06 22:33:00,24.7,5.4,30.26,North,355,2.0,12.0,43,0.00,,CLR,0.02,VWS V14.00,2013-02-07 03:33:00,
2013-02-06 22:38:00,24.6,5.8,30.26,SSE,161,2.0,12.0,44,0.00,,CLR,0.02,VWS V14.00,2013-02-07 03:38:00,
2013-02-06 22:43:00,24.6,5.8,30.26,North,350,4.0,12.0,44,0.00,,CLR,0.02,VWS V14.00,2013-02-07 03:43:00,
2013-02-06 22:48:00,24.5,5.7,30.26,West,266,5.0,12.0,44,0.00,,CLR,0.02,VWS V14.00,2013-02-07 03:48:00,
2013-02-06 22:53:00,24.5,6.2,30.26,NNW,333,1.0,12.0,45,0.00,,CLR,0.02,VWS V14.00,2013-02-07 03:53:00,
2013-02-06 22:58:00,24.3,5.5,30.26,NW,317,3.0,12.0,44,0.00,,CLR,0.02,VWS V14.00,2013-02-07 03:58:00,
2013-02-06 23:03:00,24.1,5.8,30.26,WNW,289,0.0,9.0,45,0.00,,CLR,0.02,VWS V14.00,2013-02-07 04:03:00,
2013-02-06 23:08:00,24.0,5.8,30.25,NW,318,3.0,9.0,45,0.00,,CLR,0.02,VWS V14.00,2013-02-07 04:08:00,
2013-02-06 23:13:00,23.9,5.2,30.25,WNW,282,2.0,9.0,44,0.00,,CLR,0.02,VWS V14.00,2013-02-07 04:13:00,
2013-02-06 23:18:00,23.8,5.6,30.25,WNW,293,0.0,9.0,45,0.00,,CLR,0.02,VWS V14.00,2013-02-07 04:18:00,
2013-02-06 23:23:00,23.7,6.0,30.26,North,354,1.0,9.0,46,0.00,,CLR,0.02,VWS V14.00,2013-02-07 04:23:00,
2013-02-06 23:28:00,23.5,5.3,30.26,North,358,1.0,9.0,45,0.00,,CLR,0.02,VWS V14.00,2013-02-07 04:28:00,
2013-02-06 23:33:00,23.4,5.7,30.26,WNW,291,2.0,5.0,46,0.00,,CLR,0.02,VWS V14.00,2013-02-07 04:33:00,
2013-02-06 23:38:00,23.3,5.6,30.27,WNW,291,1.0,5.0,46,0.00,,CLR,0.02,VWS V14.00,2013-02-07 04:38:00,
2013-02-06 23:43:00,23.3,5.1,30.27,WNW,287,2.0,5.0,45,0.00,,CLR,0.02,VWS V14.00,2013-02-07 04:43:00,
2013-02-06 23:48:00,23.3,5.6,30.27,West,279,4.0,7.0,46,0.00,,CLR,0.02,VWS V14.00,2013-02-07 04:48:00,
2013-02-06 23:53:00,23.1,5.4,30.28,North,0,1.0,7.0,46,0.00,,CLR,0.02,VWS V14.00,2013-02-07 04:53:00,
2013-02-06 23:58:00,23.1,5.4,30.28,NNW,332,0.0,7.0,46,0.00,,CLR,0.02,VWS V14.00,2013-02-07 04:58:00,